TAX1612 LPPT-LIRF

Flight info

Callsign TAX1612
Flight time 2h 9m
Altitude 38000
Route ORVED DCT UREDI N870 PONEN DCT SEROX DCT VILAR DCT KARES DCT BISES DCT BCN/N0439F370 DCT DIPES/N0441F380 N725 TOSNU/N0439F370 DCT LAPIT DCT OSPOK DCT NOLVI DCT ORKUM/N0439F380 DCT ELSAG DCT ALG DCT ROMPO DCT RUXOP DCT BATOX DCT TINTO L5 VALMA
Aircraft A320/M-SDE3FGHIRWY/LB1

Departure

Time 2026-05-04 09:44
Airport Lisbon Humberto Delgado Airport (LPPT)

Arrival

Time 2026-05-04 11:53
Airport Rome–Fiumicino Leonardo da Vinci International Airport (LIRF)
Time Latitude Longitude Altitude Speed Heading
2026-05-04 09:26 38.77116 -9.13115 332 ft 0 kts 78°
2026-05-04 09:37 38.77103 -9.13180 335 ft 4 kts 50°
2026-05-04 09:37 38.77085 -9.13194 334 ft 4 kts 348°
2026-05-04 09:38 38.77064 -9.13188 338 ft 1 kts 347°
2026-05-04 09:40 38.77076 -9.13191 334 ft 6 kts 346°
2026-05-04 09:40 38.77166 -9.13217 338 ft 20 kts 348°
2026-05-04 09:40 38.77307 -9.13254 338 ft 15 kts 347°
2026-05-04 09:40 38.77320 -9.13363 351 ft 16 kts 257°
2026-05-04 09:41 38.77292 -9.13524 351 ft 21 kts 258°
2026-05-04 09:42 38.76537 -9.14305 334 ft 14 kts 297°
2026-05-04 09:43 38.76576 -9.14416 332 ft 7 kts 300°
2026-05-04 09:43 38.76614 -9.14406 335 ft 7 kts 26°
2026-05-04 09:43 38.76745 -9.14333 338 ft 50 kts 22°
2026-05-04 09:43 38.77281 -9.14047 360 ft 114 kts 23°
2026-05-04 09:44 38.78173 -9.13565 427 ft 157 kts 23°
2026-05-04 09:44 38.79145 -9.13024 1183 ft 151 kts 19°
2026-05-04 09:44 38.80107 -9.12509 1885 ft 157 kts 18°
2026-05-04 09:46 38.86969 -9.02070 6821 ft 254 kts 62°
2026-05-04 09:46 38.87728 -9.00054 7936 ft 251 kts 61°
2026-05-04 09:46 38.88518 -8.97984 8462 ft 273 kts 61°
2026-05-04 09:47 38.89381 -8.95732 9094 ft 287 kts 61°
2026-05-04 09:47 38.90272 -8.93407 9946 ft 293 kts 61°
2026-05-04 09:49 38.97632 -8.74110 14131 ft 374 kts 61°
2026-05-04 09:49 38.98795 -8.71098 14809 ft 378 kts 61°
2026-05-04 09:49 38.99985 -8.68064 15486 ft 382 kts 60°
2026-05-04 09:51 39.07224 -8.49528 19942 ft 385 kts 60°
2026-05-04 09:51 39.08418 -8.46444 20649 ft 385 kts 60°
2026-05-04 09:51 39.09617 -8.43347 21272 ft 388 kts 60°
2026-05-04 09:51 39.10821 -8.40236 21867 ft 390 kts 60°
2026-05-04 09:52 39.12040 -8.37093 22447 ft 393 kts 60°
2026-05-04 09:52 39.13267 -8.33930 23037 ft 396 kts 60°
2026-05-04 09:52 39.14493 -8.30756 23750 ft 394 kts 60°
2026-05-04 09:52 39.15692 -8.27640 24322 ft 394 kts 60°
2026-05-04 09:53 39.16914 -8.24463 24799 ft 397 kts 60°
2026-05-04 09:53 39.18143 -8.21261 25240 ft 401 kts 60°
2026-05-04 09:53 39.19385 -8.18027 25667 ft 404 kts 60°
2026-05-04 09:53 39.20636 -8.14759 26097 ft 408 kts 60°
2026-05-04 09:54 39.21898 -8.11466 26516 ft 412 kts 60°
2026-05-04 09:54 39.23174 -8.08138 26927 ft 415 kts 60°
2026-05-04 09:54 39.24458 -8.04784 27328 ft 420 kts 60°
2026-05-04 09:54 39.25756 -8.01389 27710 ft 424 kts 60°
2026-05-04 09:55 39.27048 -7.98015 28101 ft 427 kts 60°
2026-05-04 09:55 39.28376 -7.94543 28374 ft 435 kts 60°
2026-05-04 09:55 39.29721 -7.91022 28651 ft 441 kts 60°
2026-05-04 09:55 39.31087 -7.87437 28915 ft 447 kts 60°
2026-05-04 09:56 39.32463 -7.83814 29220 ft 453 kts 60°
2026-05-04 09:56 39.33856 -7.80135 29515 ft 458 kts 60°
2026-05-04 09:56 39.35264 -7.76419 29790 ft 464 kts 60°
2026-05-04 09:56 39.36687 -7.72660 30072 ft 469 kts 60°
2026-05-04 09:57 39.38108 -7.68898 30329 ft 474 kts 60°
2026-05-04 09:57 39.39562 -7.65045 30572 ft 479 kts 60°
2026-05-04 09:57 39.41026 -7.61160 30816 ft 483 kts 60°
2026-05-04 09:57 39.42503 -7.57232 31073 ft 488 kts 60°
2026-05-04 09:58 39.43994 -7.53267 31321 ft 492 kts 60°
2026-05-04 09:58 39.45492 -7.49277 31573 ft 496 kts 60°
2026-05-04 09:58 39.47003 -7.45244 31853 ft 498 kts 61°
2026-05-04 10:00 39.57595 -7.16818 34318 ft 505 kts 62°
2026-05-04 10:00 39.59117 -7.12716 34667 ft 505 kts 62°
2026-05-04 10:02 39.69663 -6.84124 36960 ft 503 kts 63°
2026-05-04 10:04 39.80242 -6.55207 38056 ft 518 kts 63°
2026-05-04 10:04 39.83321 -6.46710 38056 ft 520 kts 63°
2026-05-04 10:05 39.86400 -6.38166 38047 ft 521 kts 64°
2026-05-04 10:05 39.89323 -6.29612 38048 ft 521 kts 65°
2026-05-04 10:06 39.92148 -6.20934 38047 ft 521 kts 66°
2026-05-04 10:06 39.94971 -6.12251 38051 ft 521 kts 66°
2026-05-04 10:08 40.03735 -5.81269 38056 ft 521 kts 70°
2026-05-04 10:08 40.06205 -5.72384 38044 ft 521 kts 69°
2026-05-04 10:09 40.08691 -5.63512 38039 ft 521 kts 70°
2026-05-04 10:09 40.11145 -5.54670 38034 ft 521 kts 70°
2026-05-04 10:10 40.13582 -5.45758 38063 ft 521 kts 70°
2026-05-04 10:10 40.16012 -5.36834 38048 ft 521 kts 70°
2026-05-04 10:11 40.18439 -5.27929 38041 ft 520 kts 71°
2026-05-04 10:11 40.20865 -5.19002 38037 ft 520 kts 71°
2026-05-04 10:12 40.23265 -5.10149 38024 ft 520 kts 71°
2026-05-04 10:12 40.25669 -5.01223 38011 ft 520 kts 71°
2026-05-04 10:13 40.28067 -4.92292 38000 ft 520 kts 72°
2026-05-04 10:13 40.30465 -4.83351 37987 ft 521 kts 72°
2026-05-04 10:14 40.32865 -4.74374 38004 ft 522 kts 72°
2026-05-04 10:16 40.42381 -4.38388 38023 ft 523 kts 72°
2026-05-04 10:16 40.44748 -4.29345 38023 ft 523 kts 72°
2026-05-04 10:17 40.47095 -4.20376 38015 ft 523 kts 72°
2026-05-04 10:19 40.56440 -3.84241 38017 ft 523 kts 72°
2026-05-04 10:19 40.58771 -3.75175 37993 ft 523 kts 73°
2026-05-04 10:20 40.61093 -3.66098 38005 ft 523 kts 73°
2026-05-04 10:20 40.63406 -3.57018 38002 ft 523 kts 73°
2026-05-04 10:21 40.65696 -3.47981 38007 ft 524 kts 73°
2026-05-04 10:21 40.67991 -3.38876 37983 ft 524 kts 73°
2026-05-04 10:22 40.71428 -3.25204 38000 ft 525 kts 73°
2026-05-04 10:23 40.73719 -3.16067 38008 ft 525 kts 73°
2026-05-04 10:25 40.82774 -2.79487 38000 ft 526 kts 74°
2026-05-04 10:25 40.85022 -2.70359 38001 ft 526 kts 74°
2026-05-04 10:26 40.87270 -2.61163 37990 ft 526 kts 74°
2026-05-04 10:26 40.89500 -2.51963 38016 ft 526 kts 74°
2026-05-04 10:27 40.91733 -2.42748 38011 ft 526 kts 74°
2026-05-04 10:27 40.93956 -2.33539 38009 ft 526 kts 75°
2026-05-04 10:28 40.96157 -2.24392 37979 ft 525 kts 75°
2026-05-04 10:28 40.98365 -2.15174 37981 ft 525 kts 75°
2026-05-04 10:29 41.00567 -2.05959 37980 ft 525 kts 75°
2026-05-04 10:29 41.02757 -1.96736 37987 ft 525 kts 75°
2026-05-04 10:30 41.04924 -1.87556 37957 ft 525 kts 75°
2026-05-04 10:30 41.07103 -1.78326 37966 ft 526 kts 75°
2026-05-04 10:31 41.09286 -1.69068 37971 ft 526 kts 75°
2026-05-04 10:32 41.16817 -1.36685 37973 ft 526 kts 75°
2026-05-04 10:33 41.18960 -1.27407 37975 ft 526 kts 75°
2026-05-04 10:33 41.21090 -1.18129 37978 ft 525 kts 76°
2026-05-04 10:34 41.23193 -1.08903 37957 ft 525 kts 76°
2026-05-04 10:34 41.25297 -0.99620 37969 ft 525 kts 76°
2026-05-04 10:35 41.27399 -0.90331 37975 ft 525 kts 76°
2026-05-04 10:35 41.29505 -0.81041 37977 ft 525 kts 76°
2026-05-04 10:36 41.31593 -0.71808 37950 ft 525 kts 76°
2026-05-04 10:36 41.33675 -0.62507 37968 ft 525 kts 76°
2026-05-04 10:37 41.35260 -0.53090 38008 ft 518 kts 89°
2026-05-04 10:37 41.35316 -0.43591 38003 ft 513 kts 95°
2026-05-04 10:39 41.35040 -0.10482 37992 ft 512 kts 95°
2026-05-04 10:40 41.34957 -0.02613 37990 ft 511 kts 95°
2026-05-04 10:40 41.34854 0.06849 37991 ft 512 kts 96°
2026-05-04 10:41 41.34737 0.16322 37957 ft 512 kts 96°
2026-05-04 10:41 41.34605 0.27324 37967 ft 512 kts 96°
2026-05-04 10:42 41.34502 0.35260 37973 ft 512 kts 96°
2026-05-04 10:42 41.34365 0.44675 37965 ft 513 kts 96°
2026-05-04 10:43 41.34219 0.54170 37969 ft 514 kts 96°
2026-05-04 10:45 41.33563 0.92193 37986 ft 516 kts 96°
2026-05-04 10:45 41.33383 1.01729 37982 ft 515 kts 96°
2026-05-04 10:46 41.33192 1.11206 37991 ft 515 kts 97°
2026-05-04 10:46 41.32987 1.20721 37968 ft 515 kts 97°
2026-05-04 10:47 41.32782 1.30252 37976 ft 515 kts 97°
2026-05-04 10:47 41.32563 1.39783 37981 ft 515 kts 97°
2026-05-04 10:49 41.31632 1.77744 37955 ft 515 kts 97°
2026-05-04 10:50 41.31380 1.87278 37961 ft 516 kts 97°
2026-05-04 10:51 41.29170 2.20196 37972 ft 506 kts 109°
2026-05-04 10:52 41.28415 2.24768 37968 ft 506 kts 109°
2026-05-04 10:52 41.26918 2.33840 37947 ft 506 kts 109°
2026-05-04 10:54 41.20794 2.70382 37937 ft 508 kts 109°
2026-05-04 10:56 41.14522 3.07080 37971 ft 511 kts 109°
2026-05-04 10:57 41.12949 3.16187 37983 ft 510 kts 109°
2026-05-04 10:57 41.11344 3.25350 37998 ft 510 kts 109°
2026-05-04 10:58 41.09732 3.34513 38007 ft 510 kts 109°
2026-05-04 10:58 41.08127 3.43674 38007 ft 510 kts 109°
2026-05-04 10:59 41.06522 3.52754 38005 ft 510 kts 109°
2026-05-04 10:59 41.04897 3.61904 38015 ft 510 kts 109°
2026-05-04 11:00 41.03264 3.71039 38018 ft 510 kts 109°
2026-05-04 11:02 40.96675 4.07458 38010 ft 509 kts 109°
2026-05-04 11:05 40.84855 4.75998 38008 ft 517 kts 101°
2026-05-04 11:06 40.83985 4.85417 38012 ft 517 kts 101°
2026-05-04 11:06 40.83090 4.94843 38020 ft 517 kts 101°
2026-05-04 11:10 40.76692 5.60912 38033 ft 520 kts 101°
2026-05-04 11:12 40.72838 5.98739 38047 ft 522 kts 102°
2026-05-04 11:12 40.71863 6.08202 38051 ft 522 kts 102°
2026-05-04 11:13 40.70883 6.17683 38042 ft 522 kts 101°
2026-05-04 11:13 40.69887 6.27178 38048 ft 523 kts 102°
2026-05-04 11:14 40.69724 6.28704 38048 ft 523 kts 102°
2026-05-04 11:16 40.73143 6.74646 38067 ft 529 kts 79°
2026-05-04 11:16 40.74618 6.84093 38072 ft 529 kts 79°
2026-05-04 11:17 40.76086 6.93608 38067 ft 530 kts 78°
2026-05-04 11:19 40.81928 7.31670 38084 ft 530 kts 79°
2026-05-04 11:19 40.83363 7.41202 38086 ft 531 kts 79°
2026-05-04 11:20 40.84811 7.50773 38093 ft 531 kts 79°
2026-05-04 11:20 40.86871 7.60026 38087 ft 529 kts 65°
2026-05-04 11:22 40.97326 7.96277 38105 ft 528 kts 68°
2026-05-04 11:23 40.99927 8.05373 38099 ft 528 kts 67°
2026-05-04 11:25 41.08896 8.37186 38095 ft 525 kts 67°
2026-05-04 11:25 41.11411 8.46186 38099 ft 525 kts 68°
2026-05-04 11:27 41.22675 8.86948 38119 ft 522 kts 68°
2026-05-04 11:28 41.25152 8.95998 38114 ft 520 kts 68°
2026-05-04 11:28 41.27618 9.05026 38108 ft 519 kts 68°
2026-05-04 11:29 41.30063 9.14055 38102 ft 518 kts 68°
2026-05-04 11:29 41.32483 9.23006 38109 ft 517 kts 67°
2026-05-04 11:33 41.49301 9.85985 38119 ft 515 kts 67°
2026-05-04 11:33 41.51671 9.94989 38130 ft 514 kts 67°
2026-05-04 11:34 41.54012 10.03924 38133 ft 513 kts 68°
2026-05-04 11:34 41.56361 10.12921 38145 ft 513 kts 67°
2026-05-04 11:35 41.57533 10.17415 37989 ft 512 kts 67°
2026-05-04 11:35 41.58705 10.21907 37235 ft 512 kts 67°
2026-05-04 11:35 41.59871 10.26393 36451 ft 512 kts 68°
2026-05-04 11:35 41.61020 10.30830 35661 ft 513 kts 68°
2026-05-04 11:36 41.62179 10.35342 34834 ft 514 kts 68°
2026-05-04 11:36 41.63339 10.39866 33992 ft 516 kts 68°
2026-05-04 11:36 41.64507 10.44421 33022 ft 517 kts 68°
2026-05-04 11:36 41.65677 10.48973 32047 ft 519 kts 68°
2026-05-04 11:37 41.66850 10.53545 31082 ft 520 kts 68°
2026-05-04 11:37 41.68025 10.58126 30083 ft 522 kts 68°
2026-05-04 11:37 41.69199 10.62709 28988 ft 521 kts 68°
2026-05-04 11:37 41.70370 10.67301 27913 ft 520 kts 69°
2026-05-04 11:38 41.71535 10.71869 26857 ft 517 kts 69°
2026-05-04 11:38 41.72674 10.76345 25887 ft 514 kts 70°
2026-05-04 11:38 41.73814 10.80844 25098 ft 505 kts 70°
2026-05-04 11:38 41.74929 10.85263 24318 ft 497 kts 70°
2026-05-04 11:39 41.76032 10.89638 23363 ft 493 kts 70°
2026-05-04 11:39 41.77125 10.93962 22313 ft 490 kts 70°
2026-05-04 11:40 41.83470 11.19273 17101 ft 465 kts 71°
2026-05-04 11:41 41.84469 11.23295 16811 ft 448 kts 71°
2026-05-04 11:41 41.85444 11.27214 16242 ft 439 kts 71°
2026-05-04 11:41 41.86412 11.31104 15338 ft 440 kts 72°
2026-05-04 11:41 41.87375 11.34978 14569 ft 437 kts 72°
2026-05-04 11:42 41.88322 11.38806 13865 ft 433 kts 72°
2026-05-04 11:42 41.89246 11.42554 13285 ft 424 kts 72°
2026-05-04 11:42 41.90154 11.46229 13143 ft 404 kts 72°
2026-05-04 11:42 41.91020 11.49740 12846 ft 391 kts 73°
2026-05-04 11:43 41.91865 11.53183 12239 ft 386 kts 73°
2026-05-04 11:43 41.92714 11.56648 11218 ft 394 kts 73°
2026-05-04 11:43 41.93559 11.60095 10934 ft 380 kts 73°
2026-05-04 11:43 41.94368 11.63378 10810 ft 361 kts 73°
2026-05-04 11:44 41.95145 11.66530 10527 ft 350 kts 74°
2026-05-04 11:44 41.95883 11.69538 10285 ft 338 kts 74°
2026-05-04 11:44 41.96602 11.72471 10176 ft 324 kts 75°
2026-05-04 11:44 41.97288 11.75288 10064 ft 311 kts 75°
2026-05-04 11:45 41.97943 11.77991 9937 ft 299 kts 75°
2026-05-04 11:45 41.98576 11.80611 9682 ft 292 kts 75°
2026-05-04 11:45 41.99199 11.83192 9329 ft 289 kts 75°
2026-05-04 11:45 41.99817 11.85759 8945 ft 288 kts 75°
2026-05-04 11:46 42.00429 11.88306 8584 ft 285 kts 75°
2026-05-04 11:46 42.01036 11.90828 7936 ft 293 kts 75°
2026-05-04 11:46 42.01673 11.93467 7291 ft 300 kts 75°
2026-05-04 11:46 42.02169 11.96177 6722 ft 299 kts 89°
2026-05-04 11:47 42.02140 11.98978 6106 ft 300 kts 95°
2026-05-04 11:47 42.02064 12.01780 5580 ft 300 kts 95°
2026-05-04 11:47 42.01989 12.04560 5094 ft 297 kts 95°
2026-05-04 11:47 42.01915 12.07324 4616 ft 295 kts 95°
2026-05-04 11:48 42.01839 12.10068 4251 ft 289 kts 95°
2026-05-04 11:48 42.01767 12.12686 4070 ft 278 kts 96°
2026-05-04 11:48 42.01463 12.15164 3905 ft 262 kts 111°
2026-05-04 11:48 42.00712 12.17307 3679 ft 245 kts 126°
2026-05-04 11:49 41.99655 12.18983 3327 ft 226 kts 140°
2026-05-04 11:49 41.98409 12.20181 2971 ft 216 kts 153°
2026-05-04 11:49 41.97034 12.20924 2612 ft 211 kts 163°
2026-05-04 11:49 41.95663 12.21499 2336 ft 198 kts 162°
2026-05-04 11:50 41.94410 12.22027 2088 ft 179 kts 162°
2026-05-04 11:50 41.93289 12.22500 1860 ft 160 kts 163°
2026-05-04 11:50 41.92279 12.22925 1646 ft 146 kts 163°
2026-05-04 11:50 41.91359 12.23311 1444 ft 136 kts 163°
2026-05-04 11:51 41.90447 12.23688 1269 ft 137 kts 165°
2026-05-04 11:51 41.89553 12.24055 1075 ft 133 kts 164°
2026-05-04 11:51 41.88679 12.24433 917 ft 131 kts 164°
2026-05-04 11:51 41.87848 12.24915 627 ft 126 kts 173°
2026-05-04 11:52 41.86964 12.25173 510 ft 137 kts 166°
2026-05-04 11:52 41.86058 12.25553 385 ft 135 kts 167°
2026-05-04 11:52 41.85165 12.25915 195 ft 136 kts 166°
2026-05-04 11:52 41.84279 12.26287 30 ft 128 kts 165°
2026-05-04 11:53 41.83552 12.26578 18 ft 87 kts 163°
2026-05-04 11:53 41.83101 12.26778 15 ft 59 kts 163°
2026-05-04 11:53 41.82732 12.26867 16 ft 50 kts 184°
2026-05-04 11:53 41.82461 12.26795 15 ft 30 kts 190°
2026-05-04 11:55 41.81061 12.27308 15 ft 31 kts 162°
2026-05-04 11:55 41.80852 12.27340 15 ft 31 kts 189°
2026-05-04 11:56 41.80664 12.27236 15 ft 30 kts 241°
2026-05-04 11:56 41.80588 12.26973 16 ft 31 kts 250°
2026-05-04 11:56 41.80514 12.26704 17 ft 31 kts 249°
2026-05-04 11:56 41.80438 12.26433 15 ft 31 kts 250°
2026-05-04 11:57 41.80370 12.26183 16 ft 21 kts 249°
2026-05-04 11:57 41.80260 12.26061 15 ft 22 kts 205°
2026-05-04 11:57 41.80118 12.25972 16 ft 23 kts 206°
2026-05-04 11:57 41.79969 12.25880 15 ft 24 kts 204°
2026-05-04 11:58 41.79871 12.25779 15 ft 15 kts 277°
2026-05-04 11:58 41.79916 12.25645 17 ft 16 kts 295°
2026-05-04 11:58 41.79928 12.25526 15 ft 12 kts 208°
2026-05-04 11:58 41.79844 12.25478 16 ft 14 kts 205°
2026-05-04 11:59 41.79812 12.25484 15 ft 4 kts 118°
2026-05-04 11:59 41.79800 12.25519 15 ft 4 kts 116°
2026-05-04 11:59 41.79798 12.25525 15 ft 0 kts 116°
2026-05-04 11:59 41.79797 12.25525 15 ft 0 kts 116°